Regional Weather Roundup
Issued by NWS

Home | Current Version | Previous Version | Text Only | Print | Product List | Glossary On
Versions: 1 2 3 4 5 6 7 8 9 10 11 12 13 14 15 16 17 18 19 20 21 22 23 24 25 26 27 28 29 30 31 32 33 34 35 36 37 38 39 40 41 42 43 44 45 46 47 48 49 50
000
ASUS46 KLOX 301212
RWRCA

SOUTHERN CALIFORNIA WEATHER ROUNDUP
NATIONAL WEATHER SERVICE OXNARD CALIFORNIA
500 AM PDT SAT AUG 30 2014

NOTE: "FAIR" INDICATES FEW OR NO CLOUDS BELOW 12,000 FEET WITH NO
SIGNIFICANT WEATHER AND/OR OBSTRUCTIONS TO VISIBILITY.

  -  STATIONS PRECEEDED BY AN ASTERISK (*) ARE NOT NWS OR FAA
     STATIONS AND ARE NOT SUBJECT TO NWS AND FAA QUALITY CONTROL.

CAZ041-042-087-301300-
LA AND ORANGE COUNTY COASTAL AREAS


CITY           SKY/WX    TMP DP  RH WIND       PRES   REMARKS
L.A. DOWNTOWN  CLEAR     66  62  87 CALM      29.81S
L.A. AIRPORT   PTCLDY    67  64  90 CALM      29.82R
LONG BEACH     CLEAR     66  62  87 SE3       29.81S

CITY           SKY/WX    TMP DP  RH WIND       PRES   REMARKS
AVALON           N/A     68 N/A N/A MISG        N/A
FULLERTON      CLEAR     68  62  81 CALM      29.81R
*GETTY CENTER    N/A     64  55  72 NE2         N/A
HAWTHORNE      PTCLDY    67  63  87 CALM      29.82R
*LEO CARRILLO    N/A     63  54  72 N5          N/A
*LOS ALAMITOS  FAIR      65  63  96 SE2       29.81S
*REDONDO BEACH   N/A     62  59  88 CALM      29.80S
SANTA ANA      CLOUDY    70  63  78 CALM      29.81S
STA MONICA APT PTCLDY    65  60  84 CALM      29.82R
*UCLA            N/A     63  55  77 CALM      29.79S

$$

CAZ547-548-048-301300-
LA COUNTY VALLEYS AND INLAND EMPIRE


CITY           SKY/WX    TMP DP  RH WIND       PRES   REMARKS
BURBANK        CLEAR     66  56  70 CALM      29.82S
VAN NUYS       CLEAR     68  58  70 CALM      29.82S

CITY           SKY/WX    TMP DP  RH WIND       PRES   REMARKS
CORONA AIRPORT SUNNY     58  55  89 CALM      29.83R
*CHATSWORTH      N/A     65  51  59 CALM      29.78R
CHINO          CLEAR     62  58  86 CALM      29.83S
MARCH AFB      CLEAR     63  50  63 CALM      29.85S
ONTARIO        CLEAR     66  58  75 CALM      29.82S
*PASADENA        N/A     68  59  73 CALM        N/A
RIVERSIDE      CLEAR     67  57  70 CALM      29.82S
SAN BERNARDINO NOT AVBL
*SAN RAFAEL HI   N/A     68  50  52 CALM        N/A
*SAUGUS          N/A     69  41  36 E5          N/A
*WHITEMAN AP   NOT AVBL
*WOODLAND HILL   N/A     63  55  77 SE1         N/A

$$

CAZ054-055-301300-
LA AND SAN BERNARDINO COUNTY MOUNTAINS


CITY           SKY/WX    TMP DP  RH WIND       PRES   REMARKS
*BIG BEAR AIRP SUNNY     43  28  56 CALM      30.21S
*CHILAO          N/A     73  21  14 CALM        N/A
MT WILSON NWS    N/A     68  21  17 MISG        N/A
SANDBERG       CLEAR     70  39  32 NE10G26   30.06S
*WARM SPRINGS    N/A     73  27  18 NW7G18      N/A

$$

CAZ028-029-059-060-099-301300-
ANTELOPE VALLEY AND SURROUNDING AREAS


CITY           SKY/WX    TMP DP  RH WIND       PRES   REMARKS
LANCASTER      CLEAR     75  37  25 W14       29.88F
PALMDALE       CLEAR     68  33  27 SW8       29.91S

CITY           SKY/WX    TMP DP  RH WIND       PRES   REMARKS
29 PALMS       CLEAR     79  32  18 N6        29.91R
BARSTOW/DAGGET CLEAR     75  31  19 SW12      29.84S
BISHOP         CLOUDY    62  30  29 NE5       29.97S
CHINA LAKE     PTCLDY    66  32  28 SE3       29.83R
EDWARDS AFB    CLEAR     75  38  26 SW13      29.86S
MOJAVE         FAIR      79  39  24 W25G36    29.88F
NEEDLES        CLEAR     81  37  20 SW6       29.75R
VICTORVILLE    CLEAR     70  32  24 S5        29.93R

$$

CAZ039-040-301300-
VENTURA AND SANTA BARBARA COUNTY COAST


CITY           SKY/WX    TMP DP  RH WIND       PRES   REMARKS
CAMARILLO      CLOUDY    65  59  81 CALM      29.81R
NWS OXNARD       N/A     61  58  88 CALM      29.80S
OXNARD AIRPORT CLOUDY    63  60  90 CALM      29.80S FOG
*POINT MUGU    FOG       64  61  90 NE5       29.81S VSB 3/4
SBA APT/GOLETA CLEAR     61  56  83 CALM      29.79S
*SANTA BARBARA   N/A     65  60  81 CALM      29.87R
*VENTURA         N/A     60  56  86 CALM      29.84S

$$

CAZ044-045-301300-
VENTURA COUNTY VALLEYS


CITY           SKY/WX    TMP DP  RH WIND       PRES   REMARKS
*SIMI VALLEY     N/A     63  51  66 CALM      29.76R
*OJAI            N/A     57  51  81 CALM      29.74S
*FILLMORE        N/A     57  54  87 CALM      29.71R

$$

CAZ053-301300-
VENTURA COUNTY MOUNTAINS


CITY           SKY/WX    TMP DP  RH WIND       PRES   REMARKS
*LOCKWOOD VLY    N/A     52  34  50 MISG        N/A
*ROSE VALLEY     N/A     52  36  54 MISG        N/A

$$

CAZ034-035-036-301300-
CENTRAL COAST AND SANTA YNEZ VALLEY


CITY           SKY/WX    TMP DP  RH WIND       PRES   REMARKS
SAN LUIS OBISP FOG       57  57 100 NW3       29.85R VSB 1/4
SANTA MARIA    FOG       60  58  92 CALM      29.84F VSB 1/4

CITY           SKY/WX    TMP DP  RH WIND       PRES   REMARKS
*CAL POLY SLO    N/A     59  59 100 SW3         N/A
*LOMPOC        CLOUDY    61  55  82 CALM      29.85S
*PISMO BEACH     N/A     58  56  94 W1        29.85S
*SANTA YNEZ    CLOUDY    57  55  94 NE3       29.85F FOG

$$

CAZ037-038-051-301300-
SAN LUIS OBISPO COUNTY INTERIOR AND CUYAMA VALLEY


CITY           SKY/WX    TMP DP  RH WIND       PRES   REMARKS
*CUYAMA          N/A     64  44  47 E1        29.82F
PASO ROBLES    CLEAR     60  52  74 CALM      29.90R

$$

CAZ032-033-061-301300-
SOUTHERN DESERTS


CITY           SKY/WX    TMP DP  RH WIND       PRES   REMARKS
BLYTHE         CLEAR     79  42  26 N10       29.70R
IMPERIAL       CLEAR     83  44  25 CALM      29.66S
PALM SPRINGS   CLEAR     81  50  33 W3        29.72S
THERMAL        CLEAR     74  46  36 NE3       29.65S

$$

ELSEWHERE ACROSS THE WESTERN UNITED STATES AND MEXICO


CITY           SKY/WX    TMP DP  RH WIND       PRES   REMARKS
DENVER, CO     PTCLDY    53  44  71 S12       30.10S
GRAND CANYON,    N/A    N/A N/A N/A MISG        N/A
HONOLULU, HI   PTCLDY    75  68  78 CALM      29.91F
KAHULUI, MAUI  CLEAR     72  64  78 CALM      29.91F
LAKE TAHOE, CA MOCLDY    61  31  32 VRB5      30.16S
LAS VEGAS, NV  PTCLDY    82  31  15 S7        29.78R
MAMMOTH LAKES, FAIR      63  25  23 SE6       30.20F
MEXICO CITY, M MOCLDY    61  52  72 W7        30.26S
PHOENIX, AZ    CLEAR     85  47  26 SE8       29.77R
PORTLAND, OR   CLOUDY    64  58  80 E5        29.95S
RENO, NV       MOCLDY    65  38  36 CALM      30.02F
SALT LAKE CITY MOCLDY    74  42  31 S12       29.91R
SAN DIEGO, CA  CLOUDY    69  63  81 CALM      29.83S
SAN FRANCISCO, MOCLDY    63  60  90 W7        29.89S
SAN JOSE, CA   MOCLDY    64  59  83 CALM      29.89F
SEATTLE, WA    DRIZZLE   61  56  83 SW3       29.94F
TIJUANA, MEX   CLOUDY    66  61  82 CALM      29.85R HAZE

$$

STATION/POSITION TIME  TEMP    WIND        PRES    VSBY  WAVE
                       AIR SEA DIR/SP/G                  HT/PER
                 (UTC) (F)     (DEG/KT/KT) (MB)    (MI)  (FT/S)
POINT ARGUELLO B NOT AVBL
WEST SANTA BARBA 1200   60 61  320/ 19/ 23 1007.9F         6/ 5
POINT CONCEPTION NOT AVBL
EAST SANTA BARBA 1200           60/  4       N/A
SANTA MONICA BAY 1200   67 71   CALM  /  2 1009.0R         4/ 6



USA.gov is the U.S. government's official web portal to all federal, state and local government web resources and services.